Total_Precipitation_Accumulation
0.05 0.09 0.21 0.24 0.24 0.24 0.25 0.23 0.23 0.22 0.21 0.22 0.24 0.25 0.24 0.24 0.22 0.21 0.20 0.22 0.28 0.36 0.44 0.47 0.46 0.40 0.35 0.29 0.18 0.10 0.09 0.11 0.08 0.06 0.05 0.06 0.08 0.10 0.08 0.07 0.07 0.11 0.15
0.04 0.08 0.19 0.24 0.26 0.27 0.28 0.25 0.21 0.19 0.19 0.25 0.29 0.27 0.26 0.27 0.25 0.24 0.26 0.29 0.31 0.37 0.43 0.47 0.46 0.35 0.27 0.19 0.11 0.07 0.07 0.03 0.02 0.01 0.01 0.02 0.03 0.05 0.06 0.06 0.07 0.11 0.14
0.04 0.08 0.17 0.24 0.29 0.29 0.26 0.22 0.18 0.17 0.19 0.25 0.31 0.30 0.29 0.29 0.28 0.27 0.27 0.28 0.31 0.35 0.34 0.33 0.32 0.23 0.16 0.10 0.06 0.05 0.04 0.02 0.01 0.01 0.02 0.04 0.05 0.07 0.07 0.07 0.10 0.13 0.15
0.07 0.09 0.15 0.25 0.35 0.33 0.29 0.23 0.19 0.20 0.23 0.28 0.33 0.34 0.36 0.33 0.30 0.29 0.26 0.25 0.27 0.25 0.23 0.22 0.18 0.12 0.07 0.05 0.04 0.03 0.02 0.01 0.01 0.01 0.03 0.05 0.06 0.11 0.12 0.12 0.13 0.14 0.14
0.12 0.13 0.19 0.29 0.42 0.41 0.33 0.25 0.21 0.23 0.27 0.32 0.36 0.38 0.42 0.38 0.37 0.34 0.27 0.23 0.22 0.17 0.14 0.13 0.10 0.06 0.03 0.03 0.03 0.02 0.01 0.01 0.01 0.01 0.03 0.06 0.08 0.14 0.15 0.14 0.14 0.14 0.14
0.16 0.19 0.26 0.33 0.45 0.49 0.40 0.31 0.26 0.25 0.28 0.35 0.40 0.42 0.47 0.47 0.45 0.37 0.26 0.20 0.17 0.13 0.12 0.11 0.09 0.05 0.02 0.02 0.02 0.02 0.01 0.01 0.00 0.01 0.02 0.05 0.09 0.16 0.17 0.15 0.15 0.17 0.18
0.19 0.29 0.37 0.40 0.48 0.52 0.49 0.41 0.35 0.33 0.34 0.36 0.40 0.44 0.49 0.54 0.54 0.45 0.26 0.18 0.14 0.13 0.11 0.10 0.10 0.05 0.02 0.02 0.02 0.02 0.01 0.00 0.01 0.02 0.03 0.04 0.11 0.20 0.19 0.17 0.17 0.16 0.16
0.26 0.34 0.51 0.59 0.56 0.58 0.58 0.53 0.46 0.43 0.42 0.43 0.43 0.45 0.50 0.54 0.57 0.52 0.33 0.20 0.14 0.13 0.12 0.10 0.10 0.07 0.04 0.03 0.02 0.02 0.02 0.01 0.01 0.02 0.02 0.04 0.09 0.14 0.13 0.10 0.10 0.12 0.13
0.45 0.41 0.52 0.67 0.70 0.67 0.65 0.62 0.61 0.55 0.50 0.50 0.52 0.52 0.46 0.43 0.47 0.47 0.35 0.23 0.18 0.17 0.17 0.16 0.14 0.12 0.07 0.05 0.04 0.03 0.02 0.01 0.01 0.01 0.01 0.03 0.06 0.09 0.08 0.09 0.11 0.13 0.15
0.71 0.65 0.58 0.65 0.71 0.75 0.73 0.60 0.60 0.59 0.55 0.55 0.54 0.47 0.37 0.33 0.35 0.37 0.27 0.21 0.18 0.18 0.17 0.16 0.16 0.15 0.11 0.07 0.04 0.03 0.02 0.01 0.01 0.01 0.01 0.02 0.04 0.06 0.07 0.09 0.11 0.13 0.15
0.90 0.91 0.80 0.74 0.72 0.72 0.75 0.64 0.63 0.62 0.56 0.53 0.50 0.42 0.35 0.36 0.35 0.29 0.20 0.16 0.17 0.17 0.16 0.15 0.15 0.16 0.12 0.07 0.05 0.04 0.02 0.01 0.01 0.01 0.02 0.02 0.04 0.05 0.06 0.08 0.10 0.11 0.12
0.90 0.91 0.91 0.87 0.82 0.80 0.78 0.72 0.72 0.67 0.61 0.53 0.49 0.41 0.39 0.40 0.36 0.29 0.22 0.17 0.18 0.18 0.18 0.17 0.17 0.15 0.11 0.07 0.06 0.05 0.04 0.03 0.03 0.02 0.02 0.02 0.04 0.06 0.08 0.10 0.09 0.09 0.10
1.07 0.96 0.91 0.89 0.96 0.91 0.83 0.76 0.70 0.61 0.60 0.60 0.56 0.48 0.44 0.48 0.47 0.42 0.30 0.22 0.21 0.19 0.19 0.19 0.18 0.14 0.11 0.10 0.09 0.06 0.06 0.06 0.04 0.03 0.03 0.02 0.03 0.07 0.11 0.12 0.10 0.10 0.11
1.33 1.15 1.07 1.01 1.02 1.00 0.91 0.82 0.75 0.63 0.55 0.55 0.55 0.58 0.54 0.47 0.41 0.41 0.34 0.26 0.24 0.22 0.22 0.21 0.18 0.17 0.15 0.13 0.12 0.12 0.10 0.08 0.07 0.06 0.05 0.04 0.04 0.07 0.11 0.14 0.12 0.12 0.13
1.45 1.39 1.28 1.18 1.11 1.09 1.04 0.90 0.77 0.71 0.60 0.53 0.56 0.59 0.57 0.48 0.42 0.39 0.33 0.30 0.27 0.27 0.25 0.24 0.21 0.19 0.19 0.20 0.18 0.15 0.14 0.12 0.12 0.11 0.10 0.08 0.04 0.04 0.09 0.14 0.16 0.18 0.23
1.40 1.46 1.42 1.37 1.25 1.13 1.07 0.96 0.84 0.77 0.69 0.62 0.60 0.60 0.60 0.57 0.51 0.47 0.40 0.35 0.31 0.30 0.30 0.30 0.29 0.25 0.20 0.17 0.16 0.15 0.14 0.13 0.11 0.10 0.10 0.08 0.05 0.04 0.06 0.11 0.17 0.25 0.33
1.46 1.55 1.52 1.53 1.59 1.36 1.19 1.11 0.99 0.85 0.79 0.72 0.66 0.61 0.58 0.56 0.58 0.55 0.50 0.42 0.36 0.38 0.38 0.38 0.38 0.38 0.32 0.24 0.19 0.16 0.14 0.13 0.11 0.10 0.09 0.08 0.06 0.05 0.05 0.09 0.16 0.23 0.30
1.57 1.59 1.60 1.49 1.61 1.63 1.46 1.29 1.14 0.99 0.87 0.79 0.76 0.71 0.66 0.60 0.62 0.64 0.61 0.57 0.51 0.48 0.46 0.45 0.43 0.40 0.36 0.29 0.23 0.20 0.18 0.17 0.14 0.13 0.13 0.10 0.09 0.07 0.06 0.07 0.11 0.17 0.25
1.62 1.60 1.70 1.64 1.61 1.69 1.67 1.52 1.41 1.29 1.11 0.97 0.90 0.82 0.79 0.76 0.75 0.74 0.67 0.68 0.68 0.64 0.55 0.50 0.47 0.44 0.43 0.38 0.34 0.33 0.29 0.23 0.19 0.17 0.14 0.12 0.11 0.11 0.09 0.08 0.08 0.10 0.15
1.67 1.72 1.79 1.88 1.82 1.89 2.05 1.93 1.70 1.56 1.44 1.29 1.12 1.06 1.03 0.95 0.92 0.88 0.82 0.77 0.79 0.75 0.66 0.59 0.52 0.47 0.44 0.46 0.46 0.41 0.35 0.30 0.27 0.24 0.20 0.17 0.16 0.17 0.18 0.18 0.16 0.14 0.13
1.51 1.67 1.68 1.78 1.89 1.97 2.03 1.94 1.72 1.55 1.49 1.42 1.31 1.26 1.19 1.13 1.08 1.00 0.93 0.90 0.89 0.84 0.77 0.74 0.67 0.58 0.54 0.56 0.56 0.47 0.37 0.32 0.27 0.25 0.26 0.25 0.22 0.21 0.22 0.24 0.23 0.18 0.15
1.28 1.39 1.50 1.58 1.70 1.79 1.83 1.81 1.80 1.84 1.71 1.56 1.43 1.33 1.28 1.25 1.20 1.10 1.04 1.01 0.98 0.94 0.86 0.84 0.87 0.81 0.71 0.70 0.72 0.72 0.58 0.44 0.33 0.28 0.28 0.27 0.25 0.24 0.23 0.22 0.22 0.22 0.22
1.06 1.17 1.27 1.39 1.49 1.52 1.70 1.86 1.88 1.91 1.84 1.60 1.39 1.25 1.29 1.38 1.39 1.26 1.17 1.17 1.16 1.13 1.05 0.99 0.98 0.96 0.92 0.87 0.87 0.96 0.83 0.60 0.43 0.34 0.31 0.30 0.29 0.29 0.28 0.27 0.25 0.26 0.25
0.86 1.00 1.12 1.24 1.34 1.37 1.52 1.61 1.56 1.45 1.41 1.33 1.28 1.30 1.35 1.40 1.46 1.43 1.39 1.33 1.29 1.28 1.22 1.27 1.31 1.23 1.16 1.03 0.95 0.90 0.88 0.75 0.71 0.55 0.39 0.34 0.31 0.29 0.29 0.28 0.28 0.27 0.27
0.72 0.78 0.92 1.11 1.18 1.22 1.29 1.36 1.45 1.41 1.34 1.35 1.35 1.30 1.26 1.24 1.33 1.41 1.44 1.43 1.31 1.23 1.19 1.22 1.28 1.33 1.26 1.18 1.11 1.05 1.02 0.91 0.82 0.79 0.59 0.42 0.39 0.35 0.34 0.34 0.35 0.37 0.39
0.65 0.62 0.73 0.87 1.07 1.15 1.18 1.24 1.31 1.30 1.23 1.22 1.26 1.27 1.28 1.21 1.16 1.19 1.28 1.29 1.31 1.28 1.22 1.24 1.32 1.39 1.40 1.34 1.26 1.16 1.10 1.03 0.89 0.90 0.85 0.65 0.57 0.50 0.48 0.49 0.50 0.51 0.52